Reflectivity
13 13 10 14 13 -3 -14 12 11 -17 -19 -20 -20 -6 11 14 -1 -20 -20 -20 -20 -20 -20 -20 -20 -20 -20 -20 -20 -20 -20 -20 -20 -20 -20 -20 7 13 -20 -20 -20 -20 -20 -20 -20 -20 -20
6 4 -13 -3 16 12 15 9 7 -9 -12 -20 -20 7 12 12 13 10 -20 -20 -20 -20 -20 -20 -20 -20 -20 -20 -20 -20 -20 -20 -20 -1 5 7 12 12 8 -20 -20 -20 -20 -20 -20 -20 -20
-20 7 8 12 1 13 15 17 12 14 12 11 10 13 8 7 14 9 -20 -20 -20 -20 -20 -20 -20 -20 -20 -20 -20 -20 -20 -20 -20 -18 19 -20 -4 -20 -20 -19 -20 -20 -20 -20 -20 -20 -20
3 14 17 18 17 17 16 17 14 14 16 16 11 5 8 15 14 10 -20 -20 -20 -20 -20 -20 -20 -20 -20 -20 -20 -20 -20 -20 -20 -15 17 -14 -4 13 17 -20 -20 -16 -20 -20 -20 -20 -20
-7 14 14 15 16 14 18 17 16 17 15 16 16 4 11 5 12 5 -20 -20 -20 -20 -20 -20 -20 -20 -20 -20 -20 -20 -20 -20 -20 -20 17 -20 1 1 17 3 0 -20 -20 -20 -20 -20 -20
1 -4 12 10 10 17 15 16 17 17 16 14 14 16 15 13 13 -18 -20 -20 -20 -20 -20 -20 -20 -20 -20 -20 -20 -6 -20 -20 -20 -20 -20 -13 -20 -20 -3 36 5 -20 -20 -20 -20 -20 -20
3 3 -1 1 12 12 16 16 17 18 15 16 16 16 15 12 2 -20 -20 -20 -20 -20 -20 -20 -20 -20 -20 -20 -20 -20 -20 2 -20 1 8 -20 1 -20 -19 -17 33 -5 -20 -20 -20 -20 -20
-7 -7 -4 -2 -2 -0 6 15 15 16 17 14 14 15 13 12 -16 -20 -20 -20 -20 -20 -20 -20 -20 -20 -20 -20 -20 -20 -20 4 -20 -20 -15 -2 -15 -20 -20 -15 15 23 17 -20 -20 -20 -20
14 13 -8 -15 -6 3 11 10 15 14 17 17 16 16 14 9 -20 -20 -20 -20 -20 -20 -20 -20 -20 -20 -20 -20 -20 -20 -20 -20 7 -8 -20 3 -20 -20 -0 -2 6 10 -5 -20 -20 -20 -20
18 11 16 -4 -2 1 8 12 11 12 14 15 18 16 16 -14 -20 -20 -20 -20 -20 -20 -20 -20 -20 -20 -20 -20 -20 -20 -20 -20 -20 -20 -20 -20 -20 -20 -19 17 7 5 -9 -20 -20 -20 -20
16 16 17 11 -17 8 -1 2 -0 2 12 14 16 16 16 10 -20 -20 -20 -20 -20 -20 -20 -20 -20 -20 -20 -20 -20 -20 -20 -20 -20 -4 -18 -20 -20 0 10 -11 -8 -15 -20 -19 -20 -20 -20
-8 14 -19 11 -20 -18 -5 3 3 5 4 9 11 16 15 -20 -20 -20 -20 -20 -20 -20 -20 -20 -20 -20 -20 -20 -20 -20 -15 -20 -16 10 22 -9 -20 -20 -19 3 -1 -8 -20 -17 -4 -20 -20
-20 -20 -20 -12 -15 -12 -20 -13 -0 -1 1 -9 7 17 11 -20 -20 -20 -20 -20 -20 -20 -20 -20 -20 -20 -20 -20 -20 -20 -15 -16 -9 -4 8 -20 -20 -20 -9 31 33 27 15 9 -11 -7 -20
-20 -20 -20 -20 -9 -20 -20 -3 2 -7 -2 -20 -17 -18 -11 -20 -20 -20 -20 -20 -20 -20 -20 -20 -20 -20 -20 -20 -20 -20 -20 -20 -20 -20 20 -20 -19 -20 5 -5 20 18 -14 -20 -20 -20 -20
-6 -20 -20 -20 -20 -17 -12 -20 -18 1 -20 -8 -20 -20 -20 -20 -20 -20 -20 -20 -20 -20 -20 -20 -20 -20 -20 -20 -20 -20 -20 -20 -20 -20 -20 -17 -18 -20 -20 -20 -20 -20 -20 -20 -20 -20 -20
25 -18 -20 -20 -20 -20 -5 -12 4 -20 -20 -20 -20 -20 -20 -20 -20 -20 -20 -20 -20 -20 -20 -20 -20 -20 -20 -20 -20 -20 -20 -20 -20 -20 -20 -20 -14 -20 -20 -20 -20 -20 -20 -20 -20 -9 -8
-20 20 6 -19 -20 -20 -20 -15 5 -20 -20 -20 -20 -20 -20 -20 -20 -20 -20 -20 -20 -20 -20 -20 -20 -20 -20 -20 -20 -20 -20 -20 -20 -20 -20 -20 -20 -20 -20 -20 -20 -2 -20 -20 -20 -20 15
-6 11 20 11 11 -20 -20 -20 5 -20 -20 -20 -20 -20 -20 -20 -20 -20 -20 -20 -20 -20 -20 -20 -20 -20 -20 -20 -20 -20 -20 -20 -20 -20 -20 -20 -20 -20 -20 -20 -20 -20 -20 -20 -20 -20 12
5 -16 -19 18 12 -18 -20 -9 6 -20 -20 -20 -20 -20 -20 -20 -20 -20 -20 -20 -20 -20 -20 -20 -20 -20 -20 -20 -20 -20 -20 -20 -20 -20 -20 -20 -20 -20 -16 -20 -17 -20 6 -16 -17 -13 -20
-8 13 -15 -20 17 9 -20 -20 7 7 -11 -20 -20 -20 -20 -20 -20 -20 -20 -20 -20 -20 -20 -20 -20 -20 -20 -20 -20 -20 -20 -20 -20 -20 -20 -20 -20 -19 -20 -18 14 -20 -20 -20 -20 -15 -20
-20 -10 5 -11 -15 14 -20 -20 -5 10 8 -20 -20 -20 -20 -20 -20 -20 -20 -20 -20 -20 -20 -20 -20 -20 -20 -20 -20 -20 -20 -20 -20 -20 -20 -20 -20 -20 -20 -20 -20 -19 -20 -20 -19 -20 -20
11 -20 -2 4 -8 22 8 -20 -20 11 7 -20 -20 -20 -20 -20 -20 -20 -20 -20 -20 -20 -20 -20 -20 -20 -20 -20 -20 -20 -20 -20 -20 -20 -20 -20 -20 -20 -20 -20 -20 -20 -20 -20 -20 -20 -20
15 4 -2 -4 7 -17 20 -0 -20 1 19 -20 -20 -20 -20 -20 -20 -20 -20 -20 -20 -20 -20 -20 -20 -20 -20 -20 -20 -20 -20 -20 -20 -20 -20 -20 -20 -20 -20 -20 -20 -20 -20 -20 -20 -20 -20
10 13 3 -5 6 -2 13 15 3 1 17 -20 -20 -20 -20 -20 -20 -20 -20 -20 -20 -20 -20 -20 -20 -20 -20 -20 -20 -20 -20 -20 -20 -20 -20 -20 -20 -20 -20 -20 -20 -20 -20 -20 -20 -20 -20
19 15 5 2 12 -15 -18 19 23 -20 20 -19 -20 -20 -20 -20 -20 -20 -20 -20 -20 -20 -20 -20 -20 -20 -20 -20 -20 -20 -20 -20 -20 -20 -20 -20 -20 -20 -20 -20 -20 -20 -20 -20 -20 -20 -20
9 7 5 8 -0 -10 -6 14 24 -20 21 5 -20 -20 -20 -20 -20 -20 -20 -20 -20 -20 -20 -20 -20 -20 -20 -20 -20 -20 -20 -20 -20 -20 -20 -20 -20 -20 -20 -20 -20 -20 -20 -20 -20 -20 -20
17 16 9 11 2 -13 -3 23 31 -20 22 13 -20 -20 -20 -20 -20 -20 -20 -20 -20 -20 -20 -20 -20 -20 -20 -20 -20 -20 -20 -20 -20 -20 -20 -20 -20 -20 -20 -20 -20 -20 -20 -20 -20 -20 -20
9 -13 -11 -2 -20 -12 -16 25 38 -11 25 19 -5 -20 -20 -20 -20 -20 -20 -20 -20 -20 -16 -20 -20 -20 -20 -20 -20 -20 -20 -20 -20 -20 -20 -20 -20 -20 -20 -20 -20 -20 -20 -20 -20 -20 -20
5 10 12 -1 -17 -20 -20 23 27 7 23 28 -2 -12 -20 -20 -20 -20 -20 -20 -20 -20 -20 -11 -7 -20 -20 -20 -20 -20 -20 -20 -20 -20 -20 -20 -20 -20 -20 -20 -20 -20 -20 -20 -20 -20 -20
Wind_Speed
9 9 10 10 11 10 11 11 10 9 9 9 9 10 12 14 14 15 15 14 14 11 9 8 8 12 4 3 5 5 16 14 7 1 11 7 6 3 4 4 3 3 3 5 7 5 5
11 11 11 12 12 11 11 11 11 10 10 10 9 11 11 13 15 15 15 14 14 10 6 4 5 8 1 3 2 5 7 7 6 2 4 6 3 3 3 3 5 3 3 5 7 10 3
10 11 11 11 13 12 12 10 9 10 10 10 10 11 11 13 15 15 14 14 14 10 4 2 3 2 1 8 2 4 6 3 5 3 4 3 3 2 1 3 1 4 7 7 5 3 6
9 10 11 11 12 12 12 12 11 11 10 11 11 11 11 12 14 15 15 14 13 10 3 1 3 3 5 3 3 3 5 3 4 2 1 3 4 3 2 4 1 1 2 3 4 2 5
9 10 11 12 12 13 12 12 12 12 11 11 11 11 11 12 13 14 15 16 14 6 1 1 2 2 7 4 3 4 1 2 4 3 1 3 2 1 1 4 2 3 3 4 6 6 4
7 9 11 12 13 13 14 13 13 13 12 11 11 12 12 12 12 12 15 17 6 2 2 2 2 2 2 4 4 4 2 2 2 3 1 3 2 2 2 3 7 4 3 4 4 3 3
7 7 9 11 12 13 14 15 14 14 13 13 12 12 12 12 11 11 9 4 5 4 2 5 3 4 3 3 1 2 2 2 1 2 1 3 2 6 7 10 8 4 3 5 3 7 4
8 7 8 9 10 11 14 14 15 15 15 14 14 14 14 13 11 12 2 3 2 3 6 3 2 4 3 3 2 2 1 1 1 1 3 2 5 8 8 7 10 13 7 6 6 8 6
8 10 10 9 10 11 11 13 14 15 16 15 15 15 15 13 12 3 2 1 1 3 0 4 4 3 2 4 2 2 3 2 3 2 4 5 2 4 6 9 12 10 11 4 6 3 3
12 12 11 11 11 11 11 11 13 15 15 15 15 16 14 13 3 2 2 2 1 2 5 5 3 3 2 1 3 2 1 3 2 3 3 7 1 7 5 4 8 10 12 11 8 0 4
12 12 10 11 11 11 12 12 13 13 14 14 15 16 12 6 3 1 1 3 2 4 5 3 2 1 1 3 2 3 1 1 3 2 1 3 2 6 9 7 8 7 12 10 5 5 1
11 13 12 12 11 11 12 12 12 13 14 13 15 15 11 2 3 3 2 3 3 8 6 2 3 2 1 3 2 1 1 2 1 4 6 8 4 4 4 1 11 3 2 4 1 2 2
12 13 13 14 12 11 11 11 11 13 13 13 14 15 7 1 3 3 2 3 7 6 3 2 3 3 4 4 3 4 3 4 4 2 3 2 4 4 4 2 4 5 4 3 3 1 4
14 14 13 13 13 12 12 11 12 11 11 11 13 9 4 3 2 3 3 5 5 4 6 3 2 2 5 4 3 5 3 5 7 4 2 2 2 1 4 5 3 7 2 4 4 4 3
16 15 14 14 13 13 12 12 13 9 8 8 7 2 3 3 3 2 5 4 8 7 1 5 6 2 3 2 3 3 7 4 6 10 4 2 3 1 2 2 1 3 2 3 6 2 1
18 17 16 15 14 12 12 12 11 9 7 6 2 2 3 3 1 4 4 6 4 4 3 2 2 2 3 3 2 2 5 4 2 8 1 2 1 2 1 3 2 1 2 2 2 2 3
17 19 18 17 14 11 10 11 9 8 6 5 3 3 1 4 2 4 4 7 5 6 4 5 3 4 5 4 2 3 4 3 2 2 7 3 3 2 2 1 2 2 1 2 3 2 1
18 19 18 18 16 13 10 10 7 6 2 3 3 0 1 3 0 1 3 6 4 3 3 4 3 6 4 3 3 4 4 5 5 5 5 6 3 1 6 3 2 4 5 5 3 5 3
20 18 17 18 18 14 12 10 9 5 4 3 3 1 2 5 5 4 5 4 5 4 5 5 4 6 3 4 3 4 3 1 5 5 6 5 3 1 2 2 4 5 5 3 2 1 4
20 20 19 18 19 17 14 12 11 8 9 4 3 0 1 2 2 4 4 4 3 4 3 4 4 2 1 3 5 4 3 1 1 2 2 1 3 5 5 3 2 4 5 5 4 2 3
22 22 20 18 17 20 17 14 13 11 12 4 2 6 4 4 6 6 4 3 4 3 3 4 2 5 5 3 3 4 2 5 1 5 3 1 4 3 4 4 3 3 5 9 11 9 3
21 24 23 22 20 21 20 18 16 14 17 2 4 4 1 2 2 6 5 6 8 4 7 4 5 2 6 6 6 4 2 2 3 4 1 1 3 1 4 3 6 4 3 6 4 2 4
23 24 25 25 22 20 23 21 19 19 12 3 3 2 5 3 3 3 7 7 8 7 4 3 5 1 4 8 5 4 4 2 3 2 2 1 2 1 4 1 1 4 6 5 3 3 7
27 28 27 28 24 23 25 24 22 22 20 4 4 4 4 5 5 6 5 7 8 7 5 2 4 4 2 2 2 0 2 5 5 4 4 1 1 1 4 1 1 3 0 2 3 2 4
31 30 30 29 28 27 25 28 26 24 27 4 3 4 4 4 5 4 7 5 3 2 4 4 5 4 2 3 2 4 2 2 3 5 5 4 3 1 2 1 3 1 3 5 5 1 5
33 34 33 30 30 29 25 31 29 25 26 6 4 3 3 3 7 3 5 6 5 4 1 3 2 3 4 3 2 1 3 1 1 1 3 3 1 3 1 2 2 3 2 4 2 4 6
39 38 38 37 35 34 27 34 30 26 25 7 4 7 4 4 4 6 5 6 6 2 3 2 5 2 2 2 1 3 3 1 1 2 3 1 2 1 1 1 5 3 1 1 3 5 5
51 55 51 47 42 37 28 34 33 26 27 10 2 6 6 4 3 2 3 4 3 3 5 5 4 1 2 2 3 2 2 2 1 3 2 3 3 2 2 2 2 2 1 2 4 2 4
45 38 38 44 44 39 30 37 31 27 26 15 3 3 3 3 1 2 1 1 2 1 5 2 2 4 5 4 1 3 2 1 1 3 1 2 4 3 6 5 2 4 2 1 3 2 4
Wind_Direction
13 10 19 10 358 358 350 341 335 330 322 316 316 312 314 313 316 321 319 327 332 333 350 347 346 344 10 350 258 320 330 322 336 244 179 191 193 205 188 195 197 225 257 267 261 313 290
14 12 7 6 8 359 349 350 337 331 321 317 314 310 314 312 313 314 317 324 324 335 343 334 331 346 47 287 281 322 328 334 5 6 129 164 209 208 251 207 181 220 214 272 273 258 275
357 353 353 353 356 357 355 350 349 335 326 322 316 316 311 316 310 308 314 316 324 328 337 317 333 63 296 250 304 320 354 326 332 326 156 185 194 190 197 274 20 262 273 305 249 247 237
344 344 347 348 343 346 348 346 354 342 336 327 318 317 323 313 308 308 309 311 312 312 321 288 359 84 248 274 298 321 337 317 355 343 87 158 185 183 228 323 25 239 177 257 307 182 241
344 347 344 342 340 338 338 343 343 343 346 338 328 319 316 317 314 307 307 303 300 296 256 123 118 94 281 314 5 312 341 332 328 5 19 82 106 223 91 234 298 276 249 234 304 206 230
328 336 335 332 334 333 332 335 336 338 339 341 338 328 319 316 316 317 315 292 288 347 75 96 91 59 295 305 288 310 288 321 350 317 21 48 43 193 171 225 222 202 221 219 208 292 207
310 314 326 328 329 331 328 333 332 331 332 332 334 331 324 317 315 325 337 7 14 352 59 219 225 233 278 272 249 308 347 329 347 261 92 23 235 234 230 201 257 285 310 274 230 251 238
282 296 312 320 332 332 335 330 329 325 325 326 326 326 324 319 312 316 289 91 189 188 309 243 226 270 258 159 263 227 9 191 102 271 352 210 246 250 292 260 222 236 261 287 269 253 186
280 293 302 309 317 321 327 327 327 325 325 327 324 324 323 316 314 360 215 153 191 137 12 303 211 220 234 177 253 228 118 316 225 191 231 254 268 154 240 236 229 225 223 232 248 314 221
279 288 294 303 311 315 322 320 324 326 327 323 321 325 325 322 322 266 274 142 148 91 60 281 306 308 131 188 264 147 310 136 244 264 231 263 226 203 204 239 225 231 205 234 273 317 247
282 282 289 296 304 309 317 324 325 325 323 321 317 325 324 325 294 157 248 133 114 63 24 242 214 167 133 201 148 223 18 234 213 264 277 261 203 233 251 222 200 235 181 202 256 213 87
254 273 279 285 293 301 311 318 317 319 319 320 322 323 320 312 256 250 156 103 51 47 269 325 165 251 270 211 251 35 217 46 44 269 219 260 302 262 246 134 213 256 153 108 139 155 214
245 257 267 276 283 289 297 308 316 317 316 322 321 315 288 221 254 146 110 46 40 122 281 237 261 172 222 228 210 208 232 211 214 260 244 205 229 235 125 339 21 241 219 132 180 250 231
237 244 252 259 272 285 293 299 307 310 321 324 326 340 275 233 278 145 67 52 92 242 253 338 281 252 228 165 209 195 239 267 224 175 270 243 329 284 129 216 206 214 141 153 168 192 238
239 240 241 244 254 275 287 296 304 313 320 328 358 359 279 273 179 44 82 66 209 199 236 319 319 301 277 249 207 163 216 234 210 180 178 163 290 260 8 331 90 195 187 187 106 51 42
254 234 235 240 250 259 277 293 303 310 324 354 78 18 262 314 149 55 83 237 234 208 167 133 258 191 282 281 236 209 202 204 244 190 189 250 8 3 317 291 62 79 157 86 16 134 274
308 256 233 233 237 242 252 279 290 304 338 104 87 66 349 338 36 49 192 229 251 229 184 170 230 274 243 280 236 252 248 276 200 183 160 182 174 288 353 238 204 6 322 24 114 146 160
294 304 263 230 230 227 234 257 259 285 49 71 110 73 14 20 299 253 216 199 227 241 155 234 210 213 229 280 266 263 247 220 177 163 188 212 134 175 230 206 204 222 238 189 159 199 133
293 297 305 253 227 220 218 238 237 242 151 138 150 195 51 87 244 226 266 257 223 193 203 185 241 204 168 251 282 227 272 162 177 172 185 201 219 347 353 11 174 222 197 123 108 35 201
297 286 291 302 232 216 208 216 220 220 164 109 113 136 331 111 270 251 237 233 243 194 231 189 241 171 183 254 216 276 281 281 315 221 211 119 230 199 202 204 157 190 184 173 150 112 228
306 295 285 282 288 217 207 207 210 202 170 108 147 232 190 189 245 227 181 232 183 233 211 197 261 222 183 268 260 230 251 316 285 356 111 153 258 186 263 210 219 262 218 180 194 203 210
294 297 284 277 273 250 210 200 205 195 163 151 168 173 136 246 105 178 189 239 191 212 166 225 209 199 183 206 213 253 180 203 258 338 353 357 275 111 281 212 223 263 256 193 206 169 246
292 294 287 284 269 275 221 200 201 192 165 193 194 255 118 198 150 213 214 212 205 160 195 185 188 167 233 243 228 224 203 185 199 204 282 278 226 119 272 4 273 281 218 187 186 182 155
290 288 282 283 259 259 243 204 201 194 184 177 196 130 129 247 169 209 224 175 196 200 176 172 151 153 244 300 311 59 244 228 199 232 178 212 164 150 257 27 340 254 278 227 223 198 177
283 279 277 274 263 257 252 209 203 195 193 155 185 148 167 228 185 235 218 164 133 137 194 184 208 195 128 45 7 335 318 283 207 196 198 200 143 308 97 217 272 183 212 182 186 218 189
276 277 263 257 254 252 246 218 201 194 195 170 196 149 146 147 231 164 178 171 165 184 229 203 92 153 82 90 84 260 239 261 284 278 148 124 83 130 55 18 24 246 231 216 211 357 180
282 267 260 253 247 244 239 220 201 188 188 165 206 170 130 183 237 145 204 179 136 137 138 143 162 137 59 115 181 204 272 196 284 250 207 340 6 127 2 285 298 262 218 248 78 227 150
292 269 251 237 229 227 227 215 205 184 179 173 180 184 147 181 252 159 234 141 114 159 162 170 94 330 71 145 166 216 190 246 322 237 224 198 140 211 128 75 2 154 53 49 228 12 150
302 272 237 211 207 207 219 208 187 179 174 188 137 171 137 129 162 61 358 6 65 57 132 180 185 150 175 103 190 120 201 62 148 299 22 313 187 204 177 212 229 227 195 218 188 153 179